Weather History for Whiteman AFB, MO

Change the Weather History Date:

Thursday, June 27, 2013

  Actual Average Record
Temperature  
Mean Temperature 78 °F -  
Max Temperature 90 °F 84 °F 99 °F (2012)
Min Temperature 67 °F 65 °F 55 °F (2006)
Cooling Degree Days 14    
Growing Degree Days 28 (Base 50)    
Moisture  
Dew Point 71 °F    
Average Humidity 83    
Maximum Humidity 100    
Minimum Humidity 44    
Precipitation  
Precipitation 0.01 in - - ()
Sea Level Pressure  
Sea Level Pressure 29.91 in    
Wind  
Wind Speed 4 mph (SSW)    
Max Wind Speed 18 mph    
Max Gust Speed 25 mph    
Visibility 10 miles    
Events Rain , Thunderstorm    
Averages and records for this station are not official NWS values.
T = Trace of Precipitation, MM = Missing Value Source: NWS Daily Summary

Daily Weather History Graph

Daily Weather History Graph

Search for Another Location

Airport:

Trip Planner

Search our weather history database for the weather conditions in past years. The results will help you decide how hot, cold, wet, or windy it might be!

Date:

Astronomy

Jun. 27, 2013 Rise Set
Actual Time 5:51 AM CDT 8:43 PM CDT
Civil Twilight 5:19 AM CDT 9:14 PM CDT
Nautical Twilight 4:39 AM CDT 9:55 PM CDT
Astronomical Twilight 3:53 AM CDT 10:41 PM CDT
Moon 11:44 PM CDT (6/27) 10:50 AM CDT (6/27)
Length of Visible Light 15h 55m
Length of Day
14h 51m
Waning Gibbous, 76% of the Moon is Illuminated
Jun 27
Waning Gibbous
Jun 29
Last Quarter
Jul 8
New
Jul 15
First Quarter
Jul 22
Full

Hourly Weather History & Observations

Time (CDT) Temp. Heat Index Dew Point Humidity Pressure Visibility Wind Dir Wind Speed Gust Speed Precip Events Conditions
12:58 AM 73.9 °F - 66.9 °F 79% 29.87 in 10.0 mi Calm Calm - N/A   Clear
1:58 AM 72.1 °F - 67.3 °F 85% 29.88 in 10.0 mi North 3.5 mph - N/A   Clear
2:58 AM 71.1 °F - 66.7 °F 86% 29.88 in 10.0 mi South 4.6 mph - N/A   Clear
3:58 AM 68.4 °F - 67.3 °F 96% 29.90 in 10.0 mi SSW 2.3 mph - N/A   Clear
4:58 AM 67.8 °F - 67.3 °F 98% 29.90 in 10.0 mi SW 2.3 mph - N/A   Clear
5:58 AM 68.2 °F - 67.5 °F 98% 29.90 in 10.0 mi South 2.3 mph - N/A   Clear
6:58 AM 68.9 °F - 68.7 °F 99% 29.92 in 10.0 mi SSW 3.5 mph - N/A   Clear
7:58 AM 77.2 °F - 70.0 °F 78% 29.92 in 10.0 mi WNW 1.2 mph - N/A   Clear
8:58 AM 83.3 °F 87.9 °F 71.1 °F 66% 29.92 in 10.0 mi SSW 3.5 mph - N/A   Clear
9:58 AM 87.6 °F 91.5 °F 68.7 °F 53% 29.93 in 10.0 mi SSW 3.5 mph - N/A   Clear
10:58 AM 90.5 °F 92.9 °F 65.8 °F 44% 29.93 in 10.0 mi WSW 2.3 mph - N/A   Clear
11:58 AM 90.0 °F 97.4 °F 72.3 °F 56% 29.94 in 10.0 mi NW 5.8 mph - N/A   Overcast
12:48 PM 86.0 °F 95.1 °F 75.2 °F 70% 29.99 in 10.0 mi NW 13.8 mph - N/A Rain Light Rain Showers
12:58 PM 84.2 °F 90.9 °F 73.4 °F 70% 30.01 in 10.0 mi NW 18.4 mph 25.3 mph 0.00 in Rain Light Rain Showers
1:58 PM 76.3 °F - 70.7 °F 83% 29.97 in 10.0 mi North 9.2 mph - 0.00 in Rain Light Rain
2:58 PM 76.3 °F - 73.4 °F 91% 29.90 in 10.0 mi ESE 5.8 mph - 0.01 in Rain Light Rain
3:05 PM 77.0 °F - 73.4 °F 89% 29.91 in 10.0 mi Variable 2.3 mph - N/A   Overcast
3:58 PM 79.7 °F - 72.5 °F 79% 29.92 in 10.0 mi NNE 2.3 mph - N/A   Overcast
4:58 PM 81.0 °F 86.2 °F 73.9 °F 79% 29.91 in 10.0 mi SSE 2.3 mph - N/A   Overcast
5:58 PM 80.8 °F 87.1 °F 76.3 °F 86% 29.88 in 10.0 mi SW 2.3 mph - N/A   Overcast
6:58 PM 81.0 °F 86.0 °F 73.6 °F 78% 29.86 in 10.0 mi ESE 2.3 mph - N/A   Mostly Cloudy
7:58 PM 79.5 °F - 75.7 °F 88% 29.83 in 10.0 mi NNE 5.8 mph - N/A   Mostly Cloudy
8:58 PM 75.7 °F - 75.7 °F 100% 29.88 in 10.0 mi North 11.5 mph - N/A   Mostly Cloudy
9:58 PM 74.8 °F - 74.8 °F 100% 29.88 in 10.0 mi East 3.5 mph - N/A   Partly Cloudy
10:58 PM 75.2 °F - 75.2 °F 100% 29.88 in 10.0 mi ESE 1.2 mph - N/A   Overcast
11:58 PM 75.7 °F - 75.4 °F 99% 29.84 in 10.0 mi ENE 2.3 mph - N/A Rain , Thunderstorm Light Thunderstorms and Rain